Regional Weather Roundup
Issued by NWS State College, PA

Home | Current Version | Previous Version | Graphics & Text | Print | Product List | Glossary On
Versions: 1 2 3 4 5 6 7 8 9 10 11 12 13 14 15 16 17 18 19 20 21 22 23 24 25 26 27 28 29 30 31 32 33 34 35 36 37 38 39 40 41 42 43 44 45 46 47 48 49 50
000
ASUS41 KCTP 260210
RWRCTP

REGIONAL WEATHER ROUNDUP
NATIONAL WEATHER SERVICE STATE COLLEGE PA
1000 PM EDT SAT OCT 25 2014

Note: "fair" indicates few or no clouds below 12,000 feet with no
significant weather and/or obstructions to visibility.

* = STATION THAT DOES NOT REPORT PRECIPITATION /E.G. RAIN...SNOW...ETC/
    THUNDER OR FOG.

PAZ002>004-007>009-013>016-020>023-029>032-260300-
WESTERN PENNSYLVANIA

CITY           SKY/WX    TMP DP  RH WIND       PRES   REMARKS
ERIE           CLEAR     60  46  59 W14G25    29.70R
MEADVILLE      CLEAR     56  41  57 W10G18    29.72R
FRANKLIN*      CLEAR     57  39  51 W13G21    29.73S
NEW CASTLE       N/A     61  40  45 W13G21    29.76R
BEAVER COUNTY  NOT AVBL
BUTLER*        CLEAR     57  48  72 W7        29.77R
PITTSBURGH INT CLEAR     60  48  64 W15       29.77R
PITTSBURGH     CLEAR     60  49  66 W14       29.76R
INDIANA*       CLOUDY    61  52  72 W12G17    29.76R
LATROBE        PTCLDY    59  54  82 SW12G23   29.75F
WASHINGTON CO* PTCLDY    59  52  77 W8        29.80R
$$

PAZ004>006-010>012-017>019-024>028-033>037-041-042-045-046-049>053-260300-
CENTRAL PENNSYLVANIA

CITY           SKY/WX    TMP DP  RH WIND       PRES   REMARKS
BRADFORD       MOCLDY    53  45  74 W7        29.68F
DUBOIS         PTCLDY    55  40  56 W10       29.70S
CLEARFIELD     PTCLDY    59  41  51 W12       29.70R
JOHNSTOWN      MOCLDY    57  49  74 W20G29    29.73S
ALTOONA        PTCLDY    61  51  70 W17G29    29.70S
STATE COLLEGE  MOCLDY    62  48  60 NW14G24   29.68R
WILLIAMSPORT   CLOUDY    62  49  62 W13G23    29.62R
SELINSGROVE    PTCLDY    59  48  67 CALM      29.64F
FT INDIANTOWN  PTCLDY    58  49  70 W2        29.65F
CAPITAL CITY   CLEAR     62  47  57 W5        29.65F
HARRISBURG     PTCLDY    62  48  60 SW14      29.64F
YORK           CLEAR     63  47  55 SW8       29.68F
$$

PAZ038>040-043-044-047-048-054-055-060>062-067>071-260300-
EASTERN PENNSYLVANIA

CITY           SKY/WX    TMP DP  RH WIND       PRES   REMARKS
SCRANTON       CLOUDY    62  47  57 SW12      29.60F
MOUNT POCONO   MOCLDY    57  45  64 W12G22    29.61F
ALLENTOWN      CLEAR     57  45  64 SW8       29.62F
QUAKERTOWN*    CLEAR     57  45  62 SW6       29.64F
READING        CLEAR     60  44  55 SW6       29.63F
LANCASTER      CLEAR     58  44  60 SW7       29.66F
COATESVILLE    PTCLDY    57  45  62 SW3       29.68F
POTTSTOWN      CLEAR     58  44  60 CALM      29.66F
BLUE BELL      PTCLDY    63  45  51 SW6       29.66R
DOYLESTOWN     CLEAR     59  44  57 S6        29.64F
WILLOW GROVE   NOT AVBL
NORTH PHILA    PTCLDY    63  43  48 SW10      29.67F
PHILADELPHIA   PTCLDY    60  45  57 SW12      29.68S
$$



USA.gov is the U.S. government's official web portal to all federal, state and local government web resources and services.